When you browse on this site, cookies collect data to enhance your experience and personalize the content and advertising you see.
Visit our Privacy Policy to learn more. By continuing to use the site, you agree to this use of cookies and data.
  • en France
  • Liste des pays
  • À 7 jours
  • Température de l'eau
  • Carte météo
  • Widgets météo
  • user-avatar
    Se connecter

    Météo par heure à Accrington

    Ce jour, 27 Mai, Mercredi

    Heure Température Précipitation Vent Pression Humidité
    00:00 +9°C° 0 mm 1 m/s 762 mmHg 74%
    01:00 +9°C° 0 mm 1 m/s 762 mmHg 73%
    02:00 +9°C° 0 mm 1 m/s 762 mmHg 73%
    03:00 +8°C° 0 mm 1 m/s 762 mmHg 73%
    04:00 +9°C° 0 mm 1 m/s 762 mmHg 71%
    05:00 +9°C° 0 mm 0 m/s 762 mmHg 68%
    06:00 +11°C° 0 mm 0 m/s 762 mmHg 66%
    07:00 +13°C° 0 mm 1 m/s 762 mmHg 61%
    08:00 +15°C° 0 mm 1 m/s 762 mmHg 56%
    09:00 +18°C° 0 mm 1 m/s 763 mmHg 52%
    10:00 +19°C° 0 mm 1 m/s 762 mmHg 51%
    11:00 +19°C° 0 mm 1 m/s 762 mmHg 51%
    12:00 +19°C° 0 mm 2 m/s 762 mmHg 50%
    13:00 +19°C° 0 mm 2 m/s 762 mmHg 53%
    14:00 +19°C° 0 mm 2 m/s 762 mmHg 56%
    15:00 +19°C° 0 mm 2 m/s 762 mmHg 59%
    16:00 +18°C° 0 mm 2 m/s 762 mmHg 62%
    17:00 +18°C° 0 mm 2 m/s 762 mmHg 65%
    18:00 +18°C° 0 mm 2 m/s 762 mmHg 68%
    19:00 +16°C° 0 mm 2 m/s 762 mmHg 72%
    20:00 +15°C° 0 mm 2 m/s 762 mmHg 76%
    21:00 +13°C° 0 mm 2 m/s 762 mmHg 80%
    22:00 +13°C° 0 mm 2 m/s 762 mmHg 80%
    23:00 +12°C° 0 mm 2 m/s 762 mmHg 80%

    Demain, 28 Mai, Jeudi

    Heure Température Précipitation Vent Pression Humidité
    00:00 +10°C° 0 mm 2 m/s 762 mmHg 80%
    01:00 +11°C° 0 mm 1 m/s 762 mmHg 78%
    02:00 +11°C° 0 mm 1 m/s 761 mmHg 77%
    03:00 +11°C° 0 mm 1 m/s 761 mmHg 75%
    04:00 +11°C° 0 mm 1 m/s 761 mmHg 74%
    05:00 +12°C° 0 mm 1 m/s 761 mmHg 72%
    06:00 +13°C° 0 mm 1 m/s 761 mmHg 70%
    07:00 +15°C° 0 mm 1 m/s 761 mmHg 69%
    08:00 +16°C° 0 mm 1 m/s 760 mmHg 67%
    09:00 +18°C° 0 mm 2 m/s 760 mmHg 65%
    10:00 +19°C° 0 mm 2 m/s 760 mmHg 63%
    11:00 +20°C° 0 mm 2 m/s 760 mmHg 60%
    12:00 +21°C° 0 mm 2 m/s 760 mmHg 58%
    13:00 +23°C° 0 mm 2 m/s 759 mmHg 57%
    14:00 +23°C° 0 mm 1 m/s 759 mmHg 57%
    15:00 +24°C° 0 mm 1 m/s 759 mmHg 56%
    16:00 +23°C° 0 mm 1 m/s 758 mmHg 60%
    17:00 +23°C° 0 mm 1 m/s 758 mmHg 63%
    18:00 +23°C° 0 mm 1 m/s 758 mmHg 67%
    19:00 +21°C° 0 mm 1 m/s 758 mmHg 71%
    20:00 +19°C° 0 mm 1 m/s 758 mmHg 76%
    21:00 +18°C° 0 mm 1 m/s 758 mmHg 80%
    22:00 +16°C° 0 mm 1 m/s 757 mmHg 82%
    23:00 +15°C° 0 mm 1 m/s 757 mmHg 83%

    Après-demain, 29 Mai, Vendredi

    Heure Température Précipitation Vent Pression Humidité
    00:00 +15°C° 0 mm 1 m/s 757 mmHg 84%
    01:00 +14°C° 0 mm 1 m/s 757 mmHg 84%
    02:00 +14°C° 0 mm 1 m/s 757 mmHg 84%
    03:00 +13°C° 0 mm 1 m/s 756 mmHg 85%
    04:00 +14°C° 0 mm 1 m/s 756 mmHg 82%
    05:00 +15°C° 0 mm 1 m/s 756 mmHg 79%
    06:00 +15°C° 0 mm 1 m/s 756 mmHg 76%
    07:00 +18°C° 0 mm 1 m/s 756 mmHg 68%
    08:00 +18°C° 0 mm 2 m/s 756 mmHg 60%
    09:00 +19°C° 0 mm 2 m/s 756 mmHg 53%
    10:00 +20°C° 0 mm 2 m/s 756 mmHg 50%
    11:00 +21°C° 0 mm 3 m/s 756 mmHg 48%
    12:00 +22°C° 0 mm 3 m/s 755 mmHg 45%
    13:00 +22°C° 0 mm 3 m/s 755 mmHg 46%
    14:00 +24°C° 0 mm 3 m/s 755 mmHg 48%
    15:00 +24°C° 0 mm 3 m/s 755 mmHg 49%
    16:00 +23°C° 0 mm 2 m/s 754 mmHg 53%
    17:00 +23°C° 0 mm 2 m/s 754 mmHg 58%
    18:00 +23°C° 0 mm 2 m/s 754 mmHg 62%
    19:00 +20°C° 0 mm 2 m/s 754 mmHg 67%
    20:00 +18°C° 0 mm 2 m/s 754 mmHg 71%
    21:00 +16°C° 0 mm 1 m/s 754 mmHg 75%
    22:00 +16°C° 0 mm 1 m/s 754 mmHg 77%
    23:00 +15°C° 0 mm 1 m/s 754 mmHg 80%

    30 Mai, Samedi

    Heure Température Précipitation Vent Pression Humidité
    00:00 +15°C° 0 mm 1 m/s 754 mmHg 82%
    01:00 +14°C° 0 mm 1 m/s 754 mmHg 84%
    02:00 +14°C° 0 mm 1 m/s 754 mmHg 85%
    03:00 +13°C° 0 mm 1 m/s 754 mmHg 86%
    04:00 +14°C° 0 mm 1 m/s 754 mmHg 84%
    05:00 +15°C° 0 mm 1 m/s 754 mmHg 83%
    06:00 +15°C° 0 mm 1 m/s 754 mmHg 81%
    07:00 +16°C° 0 mm 1 m/s 754 mmHg 76%
    08:00 +19°C° 0 mm 1 m/s 754 mmHg 70%
    09:00 +19°C° 0 mm 2 m/s 754 mmHg 65%
    10:00 +20°C° 0 mm 2 m/s 754 mmHg 61%
    11:00 +20°C° 0 mm 3 m/s 754 mmHg 57%
    12:00 +21°C° 0 mm 3 m/s 754 mmHg 54%
    13:00 +21°C° 0 mm 3 m/s 754 mmHg 53%
    14:00 +21°C° 0 mm 3 m/s 753 mmHg 52%
    15:00 +22°C° 0 mm 3 m/s 753 mmHg 52%
    16:00 +21°C° 0 mm 3 m/s 753 mmHg 56%
    17:00 +20°C° 0 mm 2 m/s 753 mmHg 61%
    18:00 +20°C° 0 mm 2 m/s 753 mmHg 66%
    19:00 +18°C° 0 mm 2 m/s 753 mmHg 70%
    20:00 +17°C° 0 mm 2 m/s 753 mmHg 74%
    21:00 +14°C° 0 mm 3 m/s 753 mmHg 78%
    22:00 +15°C° 0 mm 2 m/s 753 mmHg 80%
    23:00 +14°C° 0 mm 2 m/s 753 mmHg 83%

    31 Mai, Dimanche

    Heure Température Précipitation Vent Pression Humidité
    00:00 +13°C° 0 mm 2 m/s 753 mmHg 85%
    01:00 +12°C° 0 mm 2 m/s 753 mmHg 85%
    02:00 +12°C° 0 mm 2 m/s 753 mmHg 85%
    03:00 +12°C° 0 mm 2 m/s 753 mmHg 85%
    04:00 +12°C° 0 mm 2 m/s 753 mmHg 84%
    05:00 +12°C° 0 mm 2 m/s 753 mmHg 83%
    06:00 +13°C° 0 mm 2 m/s 753 mmHg 81%
    07:00 +14°C° 0 mm 2 m/s 753 mmHg 77%
    08:00 +16°C° 0 mm 2 m/s 753 mmHg 73%
    09:00 +17°C° 0 mm 3 m/s 753 mmHg 68%
    10:00 +18°C° 0 mm 2 m/s 753 mmHg 65%
    11:00 +19°C° 0 mm 2 m/s 753 mmHg 62%
    12:00 +20°C° 0 mm 2 m/s 753 mmHg 59%
    13:00 +20°C° 0 mm 2 m/s 753 mmHg 59%
    14:00 +20°C° 0 mm 2 m/s 752 mmHg 58%
    15:00 +21°C° 0 mm 1 m/s 752 mmHg 58%
    16:00 +20°C° 0 mm 2 m/s 752 mmHg 60%
    17:00 +19°C° 0 mm 2 m/s 752 mmHg 63%
    18:00 +19°C° 0 mm 2 m/s 751 mmHg 66%
    19:00 +18°C° 0 mm 2 m/s 751 mmHg 69%
    20:00 +16°C° 0 mm 3 m/s 751 mmHg 73%
    21:00 +14°C° 0 mm 3 m/s 752 mmHg 77%
    22:00 +13°C° 0 mm 3 m/s 751 mmHg 80%
    23:00 +13°C° 0 mm 2 m/s 751 mmHg 82%

    1 Juin, Lundi

    Heure Température Précipitation Vent Pression Humidité
    00:00 +12°C° 0 mm 2 m/s 751 mmHg 84%
    01:00 +12°C° 0 mm 2 m/s 751 mmHg 85%
    02:00 +10°C° 0 mm 2 m/s 751 mmHg 85%
    03:00 +11°C° 0 mm 1 m/s 751 mmHg 86%
    04:00 +12°C° 0 mm 1 m/s 751 mmHg 84%
    05:00 +12°C° 0 mm 1 m/s 750 mmHg 83%
    06:00 +13°C° 0 mm 2 m/s 750 mmHg 81%
    07:00 +15°C° 0 mm 2 m/s 750 mmHg 75%
    08:00 +16°C° 0 mm 2 m/s 750 mmHg 69%
    09:00 +18°C° 0 mm 3 m/s 750 mmHg 63%
    10:00 +19°C° 0 mm 3 m/s 750 mmHg 59%
    11:00 +20°C° 0 mm 2 m/s 750 mmHg 54%
    12:00 +21°C° 0 mm 2 m/s 749 mmHg 49%
    13:00 +21°C° 0 mm 2 m/s 749 mmHg 49%
    14:00 +21°C° 0 mm 2 m/s 749 mmHg 49%
    15:00 +21°C° 0 mm 2 m/s 748 mmHg 49%
    16:00 +20°C° 0 mm 2 m/s 748 mmHg 54%
    17:00 +20°C° 0 mm 3 m/s 748 mmHg 59%
    18:00 +19°C° 0 mm 3 m/s 748 mmHg 64%
    19:00 +18°C° 0 mm 3 m/s 748 mmHg 69%
    20:00 +16°C° 0 mm 3 m/s 748 mmHg 75%
    21:00 +14°C° 0 mm 2 m/s 748 mmHg 81%
    22:00 +14°C° 0 mm 2 m/s 748 mmHg 82%
    23:00 +13°C° 0 mm 2 m/s 748 mmHg 83%
    Voir plus